Location: Huesca
(42.1318°N, 0.4078°W)
Time: 15:45:26
(UTC+02:00)

Explorer 7 - Pass Details

Date: 23 July 2024
Orbit: 444 x 569 km, 50.3° (Epoch: 18 July)

Event Time Altitude Azimuth Distance (km) Brightness Sun altitude
Rises 08:05:05 0° 295° (WNW) 2,828 10.0 12.7°
Reaches altitude 10° 08:07:36 10° 285° (WNW) 1,901 9.1 13.1°
Maximum altitude 08:11:24 30° 224° (SW) 1,020 7.9 13.8°
Drops below altitude 10° 08:15:03 10° 163° (SSE) 1,807 9.6 14.5°
Sets 08:17:23 0° 152° (SSE) 2,663 10.5 14.9°
